Simultaneous Nadir Overpasses (SNOs) Predictions

Prediction of SNOs between AQUA and TERRA Satellite Orbit:

Table of predicted SNOs for the next 14.0 days since TLE Epoch: 12/17/2022
Index Date (AQUA) Time (AQUA) Lat,Lon (AQUA) SZA (AQUA ) Date (TERRA) Time (TERRA) Lat,Lon (TERRA) SZA (TERRA ) Distance(km) Time Diff (sec)
1 12/29/2022 06:31:15 72.99, 79.81 96.14 12/29/2022 06:32:20 72.94, 82.47 96.07 86.89 65
2 12/29/2022 07:20:39 -72.93,-112.42 83.93 12/29/2022 07:21:45 -72.88,-110.00 84.00 79.39 66
3 12/29/2022 08:10:02 72.77, 55.55 95.90 12/29/2022 08:11:10 72.71, 57.33 95.83 59.29 68
4 12/29/2022 08:59:26 -72.70,-136.69 84.16 12/29/2022 09:00:35 -72.64,-135.14 84.24 51.94 69
5 12/29/2022 09:48:50 72.59, 31.17 95.72 12/29/2022 09:49:59 72.53, 32.30 95.65 38.35 69
6 12/29/2022 10:38:14 -72.53,-161.07 84.35 12/29/2022 10:39:24 -72.46,-160.16 84.42 31.21 70
7 12/29/2022 11:27:37 72.36, 6.89 95.48 12/29/2022 11:28:48 72.34, 7.28 95.46 13.29 71
8 12/29/2022 12:17:01 -72.30, 174.65 84.59 12/29/2022 12:18:13 -72.28, 174.82 84.61 6.20 72
9 12/29/2022 13:06:26 72.23, -17.59 95.35 12/29/2022 13:07:36 72.22, -17.64 95.33 2.39 70
10 12/29/2022 13:55:51 -72.23, 150.06 84.66 12/29/2022 13:57:00 -72.21, 150.00 84.69 3.08 69
11 12/29/2022 14:45:17 72.22, -42.28 95.33 12/29/2022 14:46:21 72.25, -42.27 95.36 3.71 64
12 12/29/2022 15:34:42 -72.21, 125.38 84.69 12/29/2022 15:35:45 -72.24, 125.36 84.66 3.42 63
13 12/29/2022 16:24:09 72.25, -67.05 95.36 12/29/2022 16:25:07 72.23, -67.00 95.33 3.23 58
14 12/29/2022 17:13:34 -72.24, 100.60 84.65 12/29/2022 17:14:31 -72.22, 100.64 84.68 3.16 57
15 12/29/2022 18:03:00 72.23, -91.73 95.34 12/29/2022 18:03:53 72.21, -91.73 95.31 3.07 53
16 12/29/2022 18:52:25 -72.23, 75.92 84.68 12/29/2022 18:53:17 -72.20, 75.91 84.71 3.38 52
17 12/29/2022 19:41:51 72.22,-116.42 95.32 12/29/2022 19:42:38 72.24,-116.36 95.34 3.14 47
18 12/29/2022 20:31:16 -72.21, 51.24 84.70 12/29/2022 20:32:02 -72.23, 51.28 84.68 2.49 46
19 12/29/2022 21:20:42 72.20,-141.10 95.29 12/29/2022 21:21:24 72.22,-141.09 95.31 2.11 42
20 12/29/2022 22:10:07 -72.19, 26.56 84.72 12/29/2022 22:10:48 -72.21, 26.55 84.71 1.83 41
21 12/29/2022 22:59:33 72.18,-165.78 95.27 12/29/2022 23:00:10 72.20,-165.82 95.29 2.11 37
22 12/29/2022 23:48:58 -72.17, 1.88 84.74 12/29/2022 23:49:34 -72.19, 1.82 84.73 2.43 36
23 12/30/2022 00:38:24 72.16, 169.54 95.25 12/30/2022 00:38:56 72.17, 169.46 95.26 3.15 32
24 12/30/2022 01:27:50 -72.21, -22.90 84.71 12/30/2022 01:28:19 -72.22, -22.81 84.70 3.06 29
25 12/30/2022 02:17:15 72.20, 144.76 95.28 12/30/2022 02:17:40 72.21, 144.82 95.29 2.20 25
26 12/30/2022 03:06:40 -72.19, -47.58 84.73 12/30/2022 03:07:04 -72.20, -47.54 84.73 1.42 24
27 12/30/2022 03:56:06 72.18, 120.08 95.26 12/30/2022 03:56:26 72.18, 120.09 95.26 0.60 20
28 12/30/2022 04:45:31 -72.18, -72.26 84.75 12/30/2022 04:45:50 -72.18, -72.27 84.75 0.30 19
29 12/30/2022 05:34:57 72.16, 95.40 95.24 12/30/2022 05:35:12 72.16, 95.37 95.24 1.14 15
30 12/30/2022 06:24:22 -72.16, -96.94 84.78 12/30/2022 06:24:36 -72.15, -97.00 84.78 1.89 14
31 12/30/2022 07:13:48 72.15, 70.72 95.21 12/30/2022 07:13:58 72.14, 70.64 95.21 2.77 10
32 12/30/2022 08:03:14 -72.19,-121.72 84.74 12/30/2022 08:03:21 -72.19,-121.63 84.75 3.14 7
33 12/30/2022 08:52:40 72.18, 45.94 95.25 12/30/2022 08:52:43 72.17, 46.00 95.24 2.38 3
34 12/30/2022 09:42:05 -72.18,-146.40 84.77 12/30/2022 09:42:07 -72.17,-146.36 84.78 1.89 2
35 12/30/2022 10:31:31 72.17, 21.26 95.22 12/30/2022 10:31:29 72.15, 21.28 95.21 1.50 2
36 12/30/2022 11:20:56 -72.16,-171.09 84.79 12/30/2022 11:20:53 -72.14,-171.09 84.80 1.64 3
37 12/30/2022 12:10:22 72.15, -3.42 95.20 12/30/2022 12:10:15 72.13, -3.45 95.19 2.06 7
38 12/30/2022 12:59:47 -72.14, 164.23 84.81 12/30/2022 12:59:39 -72.12, 164.18 84.83 2.69 8
39 12/30/2022 13:49:13 72.13, -28.11 95.18 12/30/2022 13:49:01 72.11, -28.18 95.16 3.42 12
40 12/30/2022 14:38:38 -72.12, 139.55 84.83 12/30/2022 14:38:24 -72.15, 139.55 84.80 3.41 14
41 12/30/2022 15:28:04 72.11, -52.79 95.16 12/30/2022 15:27:46 72.14, -52.82 95.19 3.35 18
42 12/30/2022 16:17:29 -72.11, 114.87 84.86 12/30/2022 16:17:10 -72.13, 114.82 84.83 3.36 19
43 12/30/2022 17:06:56 72.15, -77.57 95.19 12/30/2022 17:06:32 72.12, -77.54 95.16 3.30 24
44 12/30/2022 17:56:21 -72.14, 90.09 84.82 12/30/2022 17:55:56 -72.11, 90.09 84.85 3.46 25
45 12/30/2022 18:45:47 72.13,-102.25 95.17 12/30/2022 18:45:17 72.15,-102.18 95.19 3.37 30
46 12/30/2022 19:35:12 -72.13, 65.41 84.85 12/30/2022 19:34:41 -72.14, 65.46 84.83 2.66 31
47 12/30/2022 20:24:38 72.11,-126.93 95.15 12/30/2022 20:24:03 72.13,-126.91 95.16 2.02 35
48 12/30/2022 21:14:03 -72.11, 40.73 84.87 12/30/2022 21:13:27 -72.12, 40.73 84.85 1.56 36
49 12/30/2022 22:03:29 72.10,-151.61 95.12 12/30/2022 22:02:49 72.11,-151.63 95.14 1.50 40
50 12/30/2022 22:52:54 -72.09, 16.04 84.89 12/30/2022 22:52:13 -72.10, 16.00 84.88 1.78 41
51 12/30/2022 23:42:20 72.08,-176.30 95.10 12/30/2022 23:41:35 72.09,-176.36 95.11 2.41 45
52 12/31/2022 00:31:45 -72.07, -8.64 84.91 12/31/2022 00:30:59 -72.08, -8.73 84.91 3.04 46
53 12/31/2022 01:21:12 72.12, 158.93 95.13 12/31/2022 01:20:20 72.12, 159.00 95.14 2.69 52



Historial Predications of SNOs between AQUA and TERRA
